CYYB

North Bay Jack Garland Airport

Airport
ICAO code
CYYB
Summary
ICAO Region
NAM
ICAO Territory
Location

North Bay, Ontario,

Coordinates
46° 21' 49" N , 79° 25' 22" W
KCC
Airport CFIT
Altimeter Temperature Error Correction
Airport GND
Aircraft Ground De/Anti Icing
Airport WX
Fog
Metar
Observation
CYYB 300100Z 13017G22KT 15SM OVC035 M01/M02 A2990 RMK SC8 PRESFR SLP148
Station
North Bay, Ont.
Date/Time
2022-11-30 01:00:00
Wind direction
130°
Wind speed
17 kts
Lowest cloud amount
overcast
Temperature
-1°C
Dew point
-2°C
Humidity
92%
Weather condition
n/a

Description

Regional airport located in North Bay, Ontario, Canada.

Climatology

Humid Continental climate (Köppen climate classification Dfb) - Variable weather patterns and a large seasonal temperature variance. Summers are often warm and humid with frequent thunderstorms and winters can be very cold with frequent snowfall and persistent snow cover.

Runways

Designator Length Width Surface Rops
13/31 762 23 GRS No/No
18/36 1364 46 ASP Yes/Yes
8/26 3048 61 ASP Yes/Yes

Airport map

Aerial View

SKYbrary Partners:

Safety knowledge contributed by: